{"data":{"norad_id":68221,"epoch":"2026-09-19T21:54:50.359968Z","epoch_age_seconds":102257,"freshness":"FRESH","line1":"1 68221U 26053Q   26262.91308287  .00018603  00000+0  57695-3 0  9993","line2":"2 68221  97.2851 136.7028 0001847  92.6752 267.4702 15.33454335 29983","mean_motion":15.33454335,"eccentricity":0.0001847,"inclination_deg":97.2851,"raan_deg":136.7028,"arg_perigee_deg":92.6752,"mean_anomaly_deg":267.4702,"bstar":0.00057695,"rev_number":2998,"period_min":93.90563299689,"perigee_km":464.25137762844,"apogee_km":466.77942282508,"semimajor_km":6843.6524002268,"source":"CELESTRAK","updated_at":"2026-09-20T09:00:43.835649Z"}}